Location: Harbor Side
(32.6101°N, 117.0814°W)
Time: 06:22:40
(UTC+00:00)

IDEFIX/ARIANE 42P - Pass Details

Date: 21 April 2021
Orbit: 785 x 802 km, 98.4° (Epoch: 13 May)

Event Time Altitude Azimuth Distance (km) Brightness Sun altitude
Rises 11:57:56 0° 347° (NNW) 3,293 5.9 -15.4°
Reaches altitude 10° 12:01:47 10° 318° (NW) 2,363 4.9 -14.6°
Maximum altitude 12:03:43 12° 296° (WNW) 2,217 4.5 -14.3°
Enters shadow 12:04:30 12° 287° (WNW) 2,241 4.5 -14.1°
